Weather History for Cheboygan, MI

Change the Weather History Date:

Friday, July 26, 2013

  Actual Average (KPLN) Record (KPLN)
Temperature  
Mean Temperature 67 °F -  
Max Temperature 75 °F 78 °F 97 °F (1955)
Min Temperature 59 °F 54 °F 39 °F (1975)
Cooling Degree Days 2    
Growing Degree Days 17 (Base 50)    
Moisture  
Dew Point 59 °F    
Average Humidity 82    
Maximum Humidity 93    
Minimum Humidity 65    
Precipitation  
Precipitation 0.00 in - - ()
Sea Level Pressure  
Sea Level Pressure 29.92 in    
Wind  
Wind Speed 6 mph (South)    
Max Wind Speed 17 mph    
Max Gust Speed 25 mph    
Visibility 9 miles    
Events Rain    
Averages and records for this station are not official NWS values.
T = Trace of Precipitation, MM = Missing Value Source: NWS Daily Summary

Daily Weather History Graph

Daily Weather History Graph

Search for Another Location

Airport:

Trip Planner

Search our weather history database for the weather conditions in past years. The results will help you decide how hot, cold, wet, or windy it might be!

Date:

Astronomy

Jul. 26, 2013 Rise Set
Actual Time 6:14 AM EDT 9:13 PM EDT
Civil Twilight 5:39 AM EDT 9:48 PM EDT
Nautical Twilight 4:54 AM EDT 10:33 PM EDT
Astronomical Twilight 4:00 AM EDT 11:26 PM EDT
Moon 11:08 PM EDT (7/26) 11:07 AM EDT (7/26)
Length of Visible Light 16h 08m
Length of Day
14h 58m
Waning Gibbous, 80% of the Moon is Illuminated
Jul 26
Waning Gibbous
Jul 29
Last Quarter
Aug 6
New
Aug 14
First Quarter
Aug 20
Full

Hourly Weather History & Observations

Time (EDT) Temp. Dew Point Humidity Pressure Visibility Wind Dir Wind Speed Gust Speed Precip Events Conditions
12:16 AM 65.5 °F 55.9 °F 71% 29.99 in 10.0 mi South 4.6 mph - N/A   Clear
12:35 AM 66.2 °F 54.9 °F 67% 30.00 in 10.0 mi South 4.6 mph - N/A   Clear
12:55 AM 66.4 °F 54.5 °F 66% 30.00 in 10.0 mi South 5.8 mph - N/A   Scattered Clouds
1:16 AM 65.3 °F 55.4 °F 70% 29.99 in 10.0 mi South 3.5 mph - N/A Rain Rain
1:35 AM 63.3 °F 57.4 °F 81% 30.00 in 10.0 mi Calm Calm - N/A Rain Rain
1:55 AM 61.9 °F 58.1 °F 87% 30.01 in 10.0 mi WSW 3.5 mph - N/A Rain Rain
2:16 AM 61.3 °F 57.2 °F 86% 30.02 in 10.0 mi WSW 6.9 mph - N/A Rain Light Rain
2:36 AM 61.5 °F 57.9 °F 88% 30.01 in 10.0 mi SSW 4.6 mph - N/A Rain Light Rain
2:55 AM 60.8 °F 57.0 °F 87% 30.00 in 7.0 mi South 8.1 mph - N/A Rain Rain
3:15 AM 59.9 °F 56.5 °F 88% 29.98 in 10.0 mi South 15.0 mph 19.6 mph N/A Rain Light Rain
3:35 AM 59.9 °F 55.6 °F 86% 29.98 in 10.0 mi South 9.2 mph - N/A   Overcast
3:55 AM 59.9 °F 55.9 °F 87% 29.97 in 10.0 mi South 5.8 mph - N/A   Overcast
4:16 AM 60.1 °F 55.8 °F 86% 29.97 in 10.0 mi South 5.8 mph - N/A   Overcast
4:35 AM 60.1 °F 56.5 °F 88% 29.96 in 10.0 mi South 5.8 mph - N/A   Mostly Cloudy
4:56 AM 60.3 °F 56.7 °F 88% 29.96 in 10.0 mi South 5.8 mph - N/A   Mostly Cloudy
5:15 AM 60.8 °F 55.8 °F 83% 29.96 in 10.0 mi South 9.2 mph - N/A   Overcast
5:35 AM 60.8 °F 54.5 °F 80% 29.95 in 10.0 mi South 9.2 mph - N/A   Scattered Clouds
5:55 AM 60.8 °F 54.9 °F 81% 29.95 in 10.0 mi South 8.1 mph - N/A   Mostly Cloudy
6:15 AM 60.3 °F 55.0 °F 83% 29.95 in 10.0 mi South 8.1 mph - N/A   Scattered Clouds
6:36 AM 59.9 °F 55.2 °F 84% 29.96 in 10.0 mi South 9.2 mph - N/A   Scattered Clouds
6:55 AM 59.9 °F 55.4 °F 85% 29.95 in 10.0 mi South 10.4 mph - N/A   Clear
7:15 AM 60.4 °F 55.4 °F 83% 29.95 in 10.0 mi South 8.1 mph - N/A   Clear
7:36 AM 61.3 °F 55.0 °F 80% 29.95 in 10.0 mi South 10.4 mph - N/A   Clear
7:55 AM 61.7 °F 54.5 °F 77% 29.95 in 10.0 mi South 11.5 mph 17.3 mph N/A   Clear
8:16 AM 63.3 °F 54.9 °F 74% 29.95 in 10.0 mi South 9.2 mph - N/A   Clear
8:36 AM 64.4 °F 55.4 °F 73% 29.95 in 10.0 mi South 8.1 mph 17.3 mph N/A   Clear
8:55 AM 65.7 °F 55.8 °F 70% 29.95 in 10.0 mi South 10.4 mph - N/A   Scattered Clouds
9:16 AM 67.1 °F 56.3 °F 68% 29.95 in 10.0 mi South 9.2 mph - N/A   Clear
9:36 AM 68.9 °F 57.0 °F 66% 29.94 in 10.0 mi South 11.5 mph - N/A   Scattered Clouds
9:55 AM 68.9 °F 57.4 °F 67% 29.95 in 10.0 mi South 9.2 mph - N/A   Scattered Clouds
10:16 AM 68.9 °F 58.1 °F 68% 29.94 in 10.0 mi South 8.1 mph - N/A   Scattered Clouds
10:35 AM 69.1 °F 58.8 °F 70% 29.94 in 10.0 mi South 8.1 mph - N/A   Mostly Cloudy
10:55 AM 71.6 °F 59.4 °F 65% 29.94 in 10.0 mi SSW 9.2 mph - N/A   Mostly Cloudy
11:15 AM 70.0 °F 59.0 °F 68% 29.95 in 10.0 mi SSW 4.6 mph - N/A   Mostly Cloudy
11:35 AM 68.2 °F 59.0 °F 72% 29.95 in 10.0 mi SSW 4.6 mph - N/A   Overcast
11:56 AM 66.9 °F 61.7 °F 83% 29.95 in 4.0 mi Calm Calm - N/A Rain Light Rain
12:15 PM 67.8 °F 63.3 °F 85% 29.94 in 10.0 mi Calm Calm - N/A   Overcast
12:35 PM 70.9 °F 63.3 °F 77% 29.93 in 10.0 mi SSE 4.6 mph - N/A   Overcast
12:56 PM 71.8 °F 63.1 °F 74% 29.93 in 10.0 mi South 4.6 mph - N/A   Mostly Cloudy
1:15 PM 72.7 °F 62.8 °F 71% 29.93 in 10.0 mi SE 4.6 mph - N/A   Overcast
1:36 PM 75.0 °F 63.1 °F 66% 29.92 in 10.0 mi South 5.8 mph - N/A   Mostly Cloudy
1:56 PM 73.8 °F 62.2 °F 67% 29.90 in 10.0 mi SE 9.2 mph - N/A   Mostly Cloudy
2:15 PM 71.8 °F 63.9 °F 76% 29.89 in 10.0 mi NNE 10.4 mph - N/A   Mostly Cloudy
2:36 PM 69.3 °F 63.5 °F 82% 29.88 in 10.0 mi NE 9.2 mph - N/A   Overcast
2:55 PM 67.6 °F 63.3 °F 86% 29.88 in 10.0 mi ENE 10.4 mph - N/A Rain Light Rain
3:15 PM 69.1 °F 65.3 °F 88% 29.86 in 3.0 mi SE 6.9 mph - N/A Rain Heavy Rain
3:36 PM 69.8 °F 66.0 °F 88% 29.86 in 10.0 mi WNW 4.6 mph - N/A   Overcast
3:55 PM 68.0 °F 65.3 °F 91% 29.85 in 5.0 mi NNW 8.1 mph - N/A Rain Heavy Rain
4:15 PM 67.6 °F 64.4 °F 89% 29.86 in 7.0 mi West 4.6 mph - N/A Rain Light Rain
4:36 PM 68.9 °F 65.3 °F 88% 29.86 in 7.0 mi Calm Calm - N/A Rain Light Rain
4:55 PM 70.3 °F 63.7 °F 79% 29.86 in 10.0 mi SSW 17.3 mph 21.9 mph N/A Rain Light Rain
5:16 PM 68.0 °F 61.2 °F 79% 29.86 in 7.0 mi SSW 10.4 mph 20.7 mph N/A Rain Rain
5:36 PM 66.6 °F 61.9 °F 85% 29.86 in 7.0 mi SSW 9.2 mph - N/A Rain Rain
5:55 PM 66.7 °F 61.7 °F 84% 29.86 in 10.0 mi SSW 6.9 mph - N/A   Overcast
6:16 PM 66.9 °F 62.6 °F 86% 29.86 in 10.0 mi SSW 3.5 mph - N/A   Overcast
6:35 PM 66.7 °F 63.0 °F 88% 29.86 in 10.0 mi South 4.6 mph - N/A Rain Rain
6:55 PM 66.2 °F 62.6 °F 88% 29.87 in 3.0 mi SSW 13.8 mph 23.0 mph N/A Rain Heavy Rain
7:16 PM 63.3 °F 59.2 °F 86% 29.88 in 5.0 mi WSW 11.5 mph 25.3 mph N/A Rain Rain
7:35 PM 62.6 °F 58.5 °F 86% 29.88 in 10.0 mi WSW 9.2 mph - N/A Rain Rain
7:55 PM 62.4 °F 59.0 °F 89% 29.89 in 7.0 mi SSW 10.4 mph 17.3 mph N/A   Heavy Drizzle
8:15 PM 62.2 °F 59.4 °F 90% 29.89 in 7.0 mi SSW 6.9 mph - N/A   Drizzle
8:35 PM 62.1 °F 59.4 °F 91% 29.88 in 10.0 mi South 4.6 mph - N/A   Overcast
8:56 PM 62.1 °F 59.2 °F 90% 29.89 in 10.0 mi SSW 5.8 mph - N/A   Overcast
9:15 PM 61.9 °F 59.5 °F 92% 29.87 in 10.0 mi SSE 4.6 mph - N/A Rain Light Rain
9:35 PM 61.7 °F 59.4 °F 92% 29.86 in 10.0 mi SSE 4.6 mph - N/A Rain Light Rain
9:56 PM 61.7 °F 59.0 °F 91% 29.87 in 10.0 mi SSW 3.5 mph - N/A   Overcast
10:15 PM 61.7 °F 59.0 °F 91% 29.87 in 10.0 mi South 3.5 mph - N/A Rain Rain
10:36 PM 61.3 °F 59.0 °F 92% 29.86 in 10.0 mi South 3.5 mph - N/A Rain Light Rain
10:56 PM 61.2 °F 59.0 °F 93% 29.85 in 10.0 mi South 4.6 mph - N/A   Mostly Cloudy
11:15 PM 61.3 °F 59.0 °F 92% 29.85 in 10.0 mi SW 3.5 mph - N/A   Mostly Cloudy
11:36 PM 61.2 °F 59.0 °F 93% 29.85 in 10.0 mi Calm Calm - N/A   Overcast
11:55 PM 61.2 °F 59.2 °F 93% 29.85 in 10.0 mi Calm Calm - N/A   Overcast